| time (UTC) | temp F | wind direction | speed MPH | gust MPH | rain 1hr in | rain 24hr in | rain mn in | humidity % | barometer mb |
| 20260831053438 | 73 | 273 | 0.0 | 0.0 | 0.00 | 0.00 | 0.00 | 1 | 1018.2 |
| 20260831052925 | 72 | 273 | 0.0 | 0.0 | 0.00 | 0.00 | 0.00 | 1 | 1018.3 |
| 20260831052418 | 72 | 273 | 0.0 | 0.0 | 0.00 | 0.00 | 0.00 | 1 | 1018.4 |
| 20260831050329 | 72 | 273 | 0.0 | 0.0 | 0.00 | 0.00 | 0.00 | 1 | 1018.4 |
| 20260831045813 | 72 | 273 | 0.0 | 0.0 | 0.00 | 0.00 | 0.00 | 1 | 1018.4 |
| 20260831045255 | 72 | 273 | 0.0 | 0.0 | 0.00 | 0.00 | 0.00 | 1 | 1018.4 |
| 20260831044759 | 72 | 273 | 0.0 | 0.0 | 0.00 | 0.00 | 0.00 | 1 | 1018.3 |
| 20260831044240 | 73 | 273 | 0.0 | 0.0 | 0.00 | 0.00 | 0.00 | 1 | 1018.3 |
| 20260831043738 | 73 | 273 | 0.0 | 0.0 | 0.00 | 0.00 | 0.00 | 1 | 1018.3 |
| 20260831043236 | 73 | 273 | 0.0 | 0.0 | 0.00 | 0.00 | 0.00 | 1 | 1018.4 |
| 20260831042733 | 73 | 273 | 0.0 | 0.0 | 0.00 | 0.00 | 0.00 | 1 | 1018.4 |
| 20260831042233 | 73 | 273 | 0.0 | 0.0 | 0.00 | 0.00 | 0.00 | 1 | 1018.3 |
| 20260831040726 | 73 | 273 | 0.0 | 0.0 | 0.00 | 0.00 | 0.00 | 1 | 1018.5 |
| 20260831035730 | 73 | 273 | 0.0 | 0.0 | 0.00 | 0.00 | 0.00 | 1 | 1018.6 |
| 20260831035238 | 73 | 273 | 0.0 | 0.0 | 0.00 | 0.00 | 0.00 | 1 | 1018.6 |
| 20260831034728 | 73 | 273 | 0.0 | 0.0 | 0.00 | 0.00 | 0.00 | 1 | 1018.6 |
| 20260831034213 | 73 | 273 | 0.0 | 0.0 | 0.00 | 0.00 | 0.00 | 1 | 1018.7 |
| 20260831033706 | 73 | 273 | 0.0 | 0.0 | 0.00 | 0.00 | 0.00 | 1 | 1018.7 |
| 20260831033203 | 73 | 273 | 0.0 | 0.0 | 0.00 | 0.00 | 0.00 | 1 | 1018.7 |
| 20260831032157 | 73 | 273 | 0.0 | 0.0 | 0.00 | 0.00 | 0.00 | 1 | 1018.7 |
| 20260831031643 | 74 | 273 | 0.0 | 0.0 | 0.00 | 0.00 | 0.00 | 1 | 1018.8 |
| 20260831031128 | 74 | 273 | 0.0 | 0.0 | 0.00 | 0.00 | 0.00 | 1 | 1018.8 |
| 20260831025630 | 74 | 273 | 0.0 | 0.0 | 0.00 | 0.00 | 0.00 | 1 | 1018.8 |
| 20260831025125 | 74 | 273 | 0.0 | 0.0 | 0.00 | 0.00 | 0.00 | 1 | 1018.8 |
| 20260831024621 | 74 | 273 | 0.0 | 0.0 | 0.00 | 0.00 | 0.00 | 1 | 1018.8 |
| 20260831024112 | 74 | 192 | 0.0 | 0.0 | 0.00 | 0.00 | 0.00 | 1 | 1018.8 |
| 20260831023557 | 74 | 192 | 0.0 | 0.0 | 0.00 | 0.00 | 0.00 | 1 | 1018.9 |
| 20260831022544 | 74 | 191 | 0.0 | 0.0 | 0.00 | 0.00 | 0.00 | 1 | 1019.0 |
| 20260831022037 | 75 | 190 | 0.0 | 0.0 | 0.00 | 0.00 | 0.00 | 1 | 1019.0 |
| 20260831021534 | 75 | 190 | 0.0 | 0.0 | 0.00 | 0.00 | 0.00 | 1 | 1019.0 |
| 20260831020547 | 75 | 189 | 0.0 | 0.0 | 0.00 | 0.00 | 0.00 | 1 | 1019.0 |
| 20260831020038 | 75 | 128 | 0.0 | 0.0 | 0.00 | 0.00 | 0.00 | 1 | 1019.0 |
| 20260831015539 | 75 | 128 | 0.0 | 0.0 | 0.00 | 0.00 | 0.00 | 1 | 1018.9 |
| 20260831015045 | 75 | 128 | 0.0 | 0.0 | 0.00 | 0.00 | 0.00 | 1 | 1018.9 |
| 20260831014527 | 76 | 128 | 0.0 | 1.0 | 0.00 | 0.00 | 0.00 | 1 | 1018.9 |
| 20260831014009 | 76 | 128 | 0.0 | 0.0 | 0.00 | 0.00 | 0.00 | 1 | 1018.9 |
| 20260831013505 | 76 | 133 | 0.0 | 2.0 | 0.00 | 0.00 | 0.00 | 1 | 1019.0 |
| 20260831012454 | 76 | 148 | 0.0 | 0.0 | 0.00 | 0.00 | 0.00 | 1 | 1018.9 |
| 20260831011954 | 76 | 150 | 0.0 | 0.0 | 0.00 | 0.00 | 0.00 | 1 | 1018.8 |
| 20260831011443 | 77 | 151 | 0.0 | 0.0 | 0.00 | 0.00 | 0.00 | 1 | 1018.8 |
| 20260831005911 | 77 | 148 | 0.0 | 0.0 | 0.00 | 0.00 | 0.00 | 1 | 1018.6 |
| 20260831005357 | 77 | 138 | 0.0 | 0.0 | 0.00 | 0.00 | 0.00 | 1 | 1018.6 |
| 20260831004854 | 77 | 142 | 0.0 | 2.0 | 0.00 | 0.00 | 0.00 | 1 | 1018.5 |
| 20260831004342 | 77 | 150 | 0.0 | 0.0 | 0.00 | 0.00 | 0.00 | 1 | 1018.5 |
| 20260831003850 | 78 | 84 | 0.0 | 0.0 | 0.00 | 0.00 | 0.00 | 1 | 1018.4 |
| 20260831003335 | 78 | 83 | 0.0 | 0.0 | 0.00 | 0.00 | 0.00 | 1 | 1018.2 |
| 20260831002828 | 78 | 83 | 0.0 | 1.0 | 0.00 | 0.00 | 0.00 | 1 | 1018.1 |
| 20260831002332 | 79 | 83 | 0.0 | 0.0 | 0.00 | 0.00 | 0.00 | 1 | 1018.1 |
| 20260831000835 | 80 | 83 | 0.0 | 0.0 | 0.00 | 0.00 | 0.00 | 1 | 1018.0 |
| 20260830235306 | 81 | 83 | 0.0 | 0.0 | 0.00 | 0.00 | 0.00 | 1 | 1017.7 |
| 20260830234802 | 81 | 83 | 0.0 | 0.0 | 0.00 | 0.00 | 0.00 | 1 | 1017.8 |
| 20260830234259 | 81 | 214 | 0.0 | 0.0 | 0.00 | 0.00 | 0.00 | 1 | 1017.8 |
| 20260830233749 | 82 | 214 | 0.0 | 0.0 | 0.00 | 0.00 | 0.00 | 1 | 1017.8 |
| 20260830233238 | 82 | 214 | 0.0 | 0.0 | 0.00 | 0.00 | 0.00 | 1 | 1017.8 |
| 20260830232740 | 83 | 214 | 0.0 | 0.0 | 0.00 | 0.00 | 0.00 | 7 | 1017.8 |
| 20260830232232 | 84 | 214 | 0.0 | 0.0 | 0.00 | 0.00 | 0.00 | 15 | 1017.9 |
| 20260830231736 | 84 | 214 | 0.0 | 0.0 | 0.00 | 0.00 | 0.00 | 21 | 1017.9 |
| 20260830231245 | 85 | 214 | 0.0 | 0.0 | 0.00 | 0.00 | 0.00 | 25 | 1017.9 |
| 20260830230738 | 85 | 214 | 0.0 | 0.0 | 0.00 | 0.00 | 0.00 | 29 | 1018.0 |
| 20260830225750 | 86 | 214 | 0.0 | 0.0 | 0.00 | 0.00 | 0.00 | 38 | 1018.0 |
| 20260830225242 | 86 | 214 | 0.0 | 0.0 | 0.00 | 0.00 | 0.00 | 39 | 1018.2 |
| 20260830224735 | 86 | 214 | 0.0 | 0.0 | 0.00 | 0.00 | 0.00 | 39 | 1018.1 |
| 20260830224216 | 86 | 214 | 0.0 | 0.0 | 0.00 | 0.00 | 0.00 | 41 | 1018.1 |
| 20260830223713 | 86 | 243 | 0.0 | 0.0 | 0.00 | 0.00 | 0.00 | 39 | 1018.1 |
| 20260830221651 | 85 | 244 | 0.0 | 0.0 | 0.00 | 0.00 | 0.00 | 38 | 1018.0 |
| 20260830221148 | 85 | 244 | 0.0 | 0.0 | 0.00 | 0.00 | 0.00 | 40 | 1018.0 |
| 20260830220639 | 85 | 243 | 0.0 | 0.0 | 0.00 | 0.00 | 0.00 | 39 | 1017.9 |
| 20260830220129 | 85 | 244 | 0.0 | 0.0 | 0.00 | 0.00 | 0.00 | 31 | 1018.0 |
| 20260830215615 | 84 | 244 | 0.0 | 0.0 | 0.00 | 0.00 | 0.00 | 30 | 1018.1 |
| 20260830214552 | 84 | 290 | 0.0 | 0.0 | 0.00 | 0.00 | 0.00 | 12 | 1018.1 |
| 20260830214044 | 83 | 286 | 0.0 | 0.0 | 0.00 | 0.00 | 0.00 | 1 | 1018.1 |
| 20260830213018 | 83 | 165 | 0.0 | 0.0 | 0.00 | 0.00 | 0.00 | 1 | 1018.0 |
| 20260830212515 | 83 | 165 | 0.0 | 0.0 | 0.00 | 0.00 | 0.00 | 1 | 1018.0 |
| 20260830211456 | 83 | 165 | 0.0 | 0.0 | 0.00 | 0.00 | 0.00 | 1 | 1017.8 |
| 20260830210954 | 83 | 165 | 0.0 | 0.0 | 0.00 | 0.00 | 0.00 | 1 | 1017.9 |
| 20260830205925 | 83 | 165 | 0.0 | 0.0 | 0.00 | 0.00 | 0.00 | 4 | 1017.9 |
| 20260830205415 | 84 | 163 | 0.0 | 1.0 | 0.00 | 0.00 | 0.00 | 8 | 1018.1 |
| 20260830204918 | 84 | 163 | 0.0 | 0.0 | 0.00 | 0.00 | 0.00 | 13 | 1018.2 |
| 20260830204417 | 84 | 163 | 0.0 | 0.0 | 0.00 | 0.00 | 0.00 | 15 | 1018.3 |
| 20260830203903 | 84 | 163 | 0.0 | 0.0 | 0.00 | 0.00 | 0.00 | 21 | 1018.4 |
| 20260830203405 | 85 | 160 | 0.0 | 0.0 | 0.00 | 0.00 | 0.00 | 28 | 1018.4 |
| 20260830202859 | 85 | 142 | 0.0 | 0.0 | 0.00 | 0.00 | 0.00 | 34 | 1018.4 |
| 20260830202351 | 86 | 142 | 0.0 | 0.0 | 0.00 | 0.00 | 0.00 | 38 | 1018.3 |
| 20260830201850 | 86 | 275 | 0.0 | 0.0 | 0.00 | 0.00 | 0.00 | 40 | 1018.3 |
| 20260830201353 | 86 | 147 | 0.0 | 0.0 | 0.00 | 0.00 | 0.00 | 41 | 1018.3 |
| 20260830200850 | 87 | 286 | 0.0 | 1.0 | 0.00 | 0.00 | 0.00 | 37 | 1018.2 |
| 20260830200359 | 86 | 136 | 0.0 | 0.0 | 0.00 | 0.00 | 0.00 | 39 | 1018.1 |
| 20260830195330 | 86 | 252 | 0.0 | 0.0 | 0.00 | 0.00 | 0.00 | 32 | 1018.2 |
| 20260830194823 | 85 | 180 | 0.0 | 0.0 | 0.00 | 0.00 | 0.00 | 35 | 1018.3 |
| 20260830194315 | 85 | 261 | 0.0 | 4.0 | 0.00 | 0.00 | 0.00 | 23 | 1018.3 |
| 20260830193757 | 85 | 152 | 0.0 | 2.0 | 0.00 | 0.00 | 0.00 | 24 | 1018.4 |
| 20260830193259 | 85 | 252 | 0.0 | 0.0 | 0.00 | 0.00 | 0.00 | 29 | 1018.5 |
| 20260830192807 | 85 | 263 | 0.0 | 0.0 | 0.00 | 0.00 | 0.00 | 27 | 1018.6 |
| 20260830192316 | 85 | 147 | 0.0 | 0.0 | 0.00 | 0.00 | 0.00 | 27 | 1018.7 |
| 20260830191817 | 85 | 150 | 0.0 | 1.0 | 0.00 | 0.00 | 0.00 | 15 | 1018.6 |
| 20260830191300 | 85 | 161 | 0.0 | 0.0 | 0.00 | 0.00 | 0.00 | 13 | 1018.8 |
| 20260830190807 | 85 | 161 | 0.0 | 0.0 | 0.00 | 0.00 | 0.00 | 4 | 1019.0 |
| 20260830190308 | 84 | 298 | 0.0 | 0.0 | 0.00 | 0.00 | 0.00 | 8 | 1019.1 |
| 20260830185757 | 84 | 323 | 0.0 | 0.0 | 0.00 | 0.00 | 0.00 | 7 | 1019.2 |
| 20260830184734 | 83 | 230 | 0.0 | 2.0 | 0.00 | 0.00 | 0.00 | 1 | 1019.5 |
| 20260830184228 | 83 | 234 | 0.0 | 0.0 | 0.00 | 0.00 | 0.00 | 1 | 1019.6 |
| 20260830183227 | 82 | 84 | 0.0 | 2.0 | 0.00 | 0.00 | 0.00 | 1 | 1019.8 |
| 20260830182732 | 82 | 298 | 0.0 | 0.0 | 0.00 | 0.00 | 0.00 | 1 | 1019.8 |
| 20260830182222 | 82 | 251 | 0.0 | 0.0 | 0.00 | 0.00 | 0.00 | 1 | 1019.9 |
| 20260830181704 | 81 | 221 | 0.0 | 0.0 | 0.00 | 0.00 | 0.00 | 1 | 1019.9 |
| 20260830181150 | 81 | 166 | 0.0 | 10.0 | 0.00 | 0.00 | 0.00 | 1 | 1019.8 |
| 20260830180653 | 80 | 154 | 0.0 | 0.0 | 0.00 | 0.00 | 0.00 | 1 | 1019.9 |
| 20260830175654 | 79 | 173 | 0.0 | 5.0 | 0.00 | 0.00 | 0.00 | 1 | 1020.0 |
| 20260830175139 | 78 | 150 | 0.0 | 9.0 | 0.00 | 0.00 | 0.00 | 1 | 1019.9 |
| 20260830174132 | 78 | 171 | 0.0 | 4.0 | 0.00 | 0.00 | 0.00 | 1 | 1020.2 |
| 20260830173616 | 79 | 198 | 0.0 | 10.0 | 0.00 | 0.00 | 0.00 | 1 | 1020.3 |
| 20260830173117 | 80 | 189 | 0.0 | 1.0 | 0.00 | 0.00 | 0.00 | 1 | 1020.3 |
| 20260830172058 | 80 | 305 | 0.0 | 7.0 | 0.00 | 0.00 | 0.00 | 1 | 1020.6 |
| 20260830171604 | 80 | 108 | 0.0 | 7.0 | 0.00 | 0.00 | 0.00 | 1 | 1020.6 |
| 20260830171102 | 80 | 117 | 0.0 | 3.0 | 0.00 | 0.00 | 0.00 | 1 | 1020.6 |
| 20260830170543 | 80 | 138 | 0.0 | 3.0 | 0.00 | 0.00 | 0.00 | 1 | 1020.7 |
| 20260830170046 | 80 | 209 | 0.0 | 0.0 | 0.00 | 0.00 | 0.00 | 1 | 1020.8 |
| 20260830165551 | 80 | 240 | 0.0 | 2.0 | 0.00 | 0.00 | 0.00 | 1 | 1020.8 |
| 20260830165033 | 81 | 139 | 0.0 | 0.0 | 0.00 | 0.00 | 0.00 | 1 | 1020.9 |
| 20260830164526 | 81 | 304 | 0.0 | 2.0 | 0.00 | 0.00 | 0.00 | 1 | 1020.8 |
| 20260830164035 | 81 | 233 | 0.0 | 3.0 | 0.00 | 0.00 | 0.00 | 1 | 1020.8 |
| 20260830163544 | 81 | 150 | 0.0 | 0.0 | 0.00 | 0.00 | 0.00 | 1 | 1020.7 |
| 20260830163030 | 81 | 173 | 0.0 | 9.0 | 0.00 | 0.00 | 0.00 | 1 | 1020.7 |
| 20260830162511 | 81 | 184 | 0.0 | 6.0 | 0.00 | 0.00 | 0.00 | 1 | 1020.8 |
| 20260830161954 | 81 | 188 | 1.0 | 10.0 | 0.00 | 0.00 | 0.00 | 1 | 1020.8 |
| 20260830161450 | 80 | 198 | 0.0 | 10.0 | 0.00 | 0.00 | 0.00 | 1 | 1020.8 |
| 20260830160937 | 80 | 159 | 0.0 | 10.0 | 0.00 | 0.00 | 0.00 | 1 | 1020.9 |
| 20260830160423 | 79 | 180 | 0.0 | 10.0 | 0.00 | 0.00 | 0.00 | 1 | 1021.0 |
| 20260830155921 | 79 | 134 | 0.0 | 0.0 | 0.00 | 0.00 | 0.00 | 1 | 1021.1 |
| 20260830155407 | 78 | 148 | 0.0 | 0.0 | 0.00 | 0.00 | 0.00 | 1 | 1021.2 |
| 20260830154857 | 78 | 212 | 0.0 | 6.0 | 0.00 | 0.00 | 0.00 | 1 | 1021.3 |
| 20260830154341 | 77 | 118 | 0.0 | 6.0 | 0.00 | 0.00 | 0.00 | 1 | 1021.3 |
| 20260830153847 | 77 | 157 | 0.0 | 7.0 | 0.00 | 0.00 | 0.00 | 1 | 1021.3 |
| 20260830153354 | 77 | 148 | 0.0 | 7.0 | 0.00 | 0.00 | 0.00 | 1 | 1021.3 |
| 20260830152904 | 76 | 215 | 0.0 | 9.0 | 0.00 | 0.00 | 0.00 | 1 | 1021.5 |
| 20260830152352 | 76 | 269 | 0.0 | 2.0 | 0.00 | 0.00 | 0.00 | 1 | 1021.4 |
| 20260830151843 | 76 | 146 | 0.0 | 0.0 | 0.00 | 0.00 | 0.00 | 1 | 1021.3 |
| 20260830151329 | 76 | 267 | 0.0 | 0.0 | 0.00 | 0.00 | 0.00 | 1 | 1021.3 |
| 20260830150812 | 76 | 139 | 0.0 | 4.0 | 0.00 | 0.00 | 0.00 | 1 | 1021.2 |
| 20260830145819 | 75 | 126 | 0.0 | 13.0 | 0.00 | 0.00 | 0.00 | 1 | 1021.0 |
| 20260830145300 | 75 | 148 | 1.0 | 13.0 | 0.00 | 0.00 | 0.00 | 1 | 1021.0 |
| 20260830144752 | 75 | 105 | 0.0 | 13.0 | 0.00 | 0.00 | 0.00 | 1 | 1021.0 |
| 20260830144244 | 75 | 141 | 0.0 | 7.0 | 0.00 | 0.00 | 0.00 | 1 | 1021.1 |
| 20260830143726 | 75 | 150 | 0.0 | 0.0 | 0.00 | 0.00 | 0.00 | 1 | 1021.0 |
| 20260830143222 | 75 | 170 | 0.0 | 4.0 | 0.00 | 0.00 | 0.00 | 1 | 1021.1 |
| 20260830142719 | 75 | 146 | 0.0 | 0.0 | 0.00 | 0.00 | 0.00 | 1 | 1021.1 |
| 20260830142201 | 75 | 148 | 0.0 | 0.0 | 0.00 | 0.00 | 0.00 | 1 | 1021.1 |
| 20260830141706 | 75 | 139 | 0.0 | 5.0 | 0.00 | 0.00 | 0.00 | 1 | 1021.2 |
| 20260830141205 | 75 | 263 | 0.0 | 0.0 | 0.00 | 0.00 | 0.00 | 1 | 1021.1 |
| 20260830140647 | 75 | 109 | 0.0 | 6.0 | 0.00 | 0.00 | 0.00 | 1 | 1021.1 |
| 20260830135639 | 74 | 169 | 0.0 | 6.0 | 0.00 | 0.00 | 0.00 | 1 | 1021.2 |
| 20260830135145 | 74 | 139 | 0.0 | 0.0 | 0.00 | 0.00 | 0.00 | 1 | 1021.2 |
| 20260830134639 | 74 | 169 | 0.0 | 7.0 | 0.00 | 0.00 | 0.00 | 1 | 1021.2 |
| 20260830134122 | 74 | 174 | 0.0 | 0.0 | 0.00 | 0.00 | 0.00 | 1 | 1021.3 |
| 20260830133621 | 74 | 146 | 0.0 | 9.0 | 0.00 | 0.00 | 0.00 | 1 | 1021.3 |
| 20260830133112 | 74 | 137 | 0.0 | 6.0 | 0.00 | 0.00 | 0.00 | 1 | 1021.4 |
| 20260830132601 | 73 | 182 | 0.0 | 0.0 | 0.00 | 0.00 | 0.00 | 1 | 1021.5 |
| 20260830132052 | 73 | 155 | 0.0 | 11.0 | 0.00 | 0.00 | 0.00 | 1 | 1021.6 |
| 20260830131534 | 73 | 163 | 0.0 | 11.0 | 0.00 | 0.00 | 0.00 | 1 | 1021.6 |
| 20260830131021 | 73 | 129 | 0.0 | 9.0 | 0.00 | 0.00 | 0.00 | 1 | 1021.6 |
| 20260830130522 | 73 | 149 | 0.0 | 9.0 | 0.00 | 0.00 | 0.00 | 1 | 1021.7 |
| 20260830130006 | 73 | 165 | 0.0 | 9.0 | 0.00 | 0.00 | 0.00 | 1 | 1021.6 |
| 20260830125507 | 73 | 159 | 0.0 | 9.0 | 0.00 | 0.00 | 0.00 | 1 | 1021.7 |
| 20260830125016 | 72 | 148 | 0.0 | 5.0 | 0.00 | 0.00 | 0.00 | 1 | 1021.7 |
| 20260830124521 | 72 | 159 | 0.0 | 4.0 | 0.00 | 0.00 | 0.00 | 1 | 1021.8 |
| 20260830124009 | 72 | 166 | 0.0 | 7.0 | 0.00 | 0.00 | 0.00 | 1 | 1021.8 |
| 20260830123454 | 72 | 130 | 0.0 | 0.0 | 0.00 | 0.00 | 0.00 | 1 | 1021.8 |
| 20260830122955 | 72 | 156 | 0.0 | 4.0 | 0.00 | 0.00 | 0.00 | 1 | 1021.9 |
| 20260830122505 | 71 | 162 | 0.0 | 7.0 | 0.00 | 0.00 | 0.00 | 1 | 1021.8 |
| 20260830122004 | 71 | 128 | 0.0 | 7.0 | 0.00 | 0.00 | 0.00 | 1 | 1021.9 |
| 20260830121505 | 71 | 131 | 0.0 | 8.0 | 0.00 | 0.00 | 0.00 | 1 | 1022.1 |
| 20260830121006 | 71 | 144 | 0.0 | 0.0 | 0.00 | 0.00 | 0.00 | 1 | 1022.1 |
| 20260830120452 | 71 | 163 | 0.0 | 0.0 | 0.00 | 0.00 | 0.00 | 1 | 1022.1 |
| 20260830115940 | 70 | 182 | 0.0 | 0.0 | 0.00 | 0.00 | 0.00 | 1 | 1022.1 |
| 20260830115430 | 70 | 155 | 0.0 | 0.0 | 0.00 | 0.00 | 0.00 | 1 | 1022.0 |
| 20260830114926 | 70 | 153 | 0.0 | 0.0 | 0.00 | 0.00 | 0.00 | 1 | 1022.0 |
| 20260830114435 | 70 | 154 | 0.0 | 0.0 | 0.00 | 0.00 | 0.00 | 1 | 1022.1 |
| 20260830113935 | 70 | 151 | 0.0 | 0.0 | 0.00 | 0.00 | 0.00 | 1 | 1022.0 |
| 20260830113421 | 70 | 156 | 0.0 | 0.0 | 0.00 | 0.00 | 0.00 | 1 | 1022.0 |
| 20260830112917 | 70 | 153 | 0.0 | 0.0 | 0.00 | 0.00 | 0.00 | 1 | 1022.0 |
| 20260830112408 | 69 | 158 | 0.0 | 0.0 | 0.00 | 0.00 | 0.00 | 1 | 1022.0 |
| 20260830111857 | 69 | 163 | 0.0 | 0.0 | 0.00 | 0.00 | 0.00 | 1 | 1022.0 |
| 20260830110851 | 69 | 162 | 0.0 | 0.0 | 0.00 | 0.00 | 0.00 | 1 | 1022.0 |
| 20260830110342 | 69 | 158 | 0.0 | 0.0 | 0.00 | 0.00 | 0.00 | 1 | 1021.9 |
| 20260830105838 | 69 | 157 | 0.0 | 0.0 | 0.00 | 0.00 | 0.00 | 1 | 1021.9 |
| 20260830104818 | 68 | 157 | 0.0 | 0.0 | 0.00 | 0.00 | 0.00 | 1 | 1021.8 |
| 20260830103803 | 68 | 152 | 0.0 | 0.0 | 0.00 | 0.00 | 0.00 | 1 | 1021.8 |
| 20260830102812 | 67 | 150 | 0.0 | 0.0 | 0.00 | 0.00 | 0.00 | 1 | 1021.8 |
| 20260830102319 | 67 | 160 | 0.0 | 0.0 | 0.00 | 0.00 | 0.00 | 1 | 1021.8 |
| 20260830101824 | 67 | 218 | 0.0 | 0.0 | 0.00 | 0.00 | 0.00 | 1 | 1021.9 |
| 20260830100825 | 67 | 219 | 0.0 | 0.0 | 0.00 | 0.00 | 0.00 | 1 | 1022.0 |
| 20260830095801 | 67 | 219 | 0.0 | 0.0 | 0.00 | 0.00 | 0.00 | 1 | 1022.0 |
| 20260830095255 | 67 | 219 | 0.0 | 0.0 | 0.00 | 0.00 | 0.00 | 1 | 1022.0 |
| 20260830094230 | 67 | 219 | 0.0 | 0.0 | 0.00 | 0.00 | 0.00 | 1 | 1021.9 |
| 20260830093717 | 67 | 219 | 0.0 | 0.0 | 0.00 | 0.00 | 0.00 | 1 | 1021.9 |
| 20260830093210 | 67 | 219 | 0.0 | 0.0 | 0.00 | 0.00 | 0.00 | 1 | 1021.9 |
| 20260830092204 | 66 | 219 | 0.0 | 0.0 | 0.00 | 0.00 | 0.00 | 1 | 1021.9 |
| 20260830091150 | 66 | 219 | 0.0 | 0.0 | 0.00 | 0.00 | 0.00 | 1 | 1021.9 |
| 20260830090655 | 66 | 219 | 0.0 | 0.0 | 0.00 | 0.00 | 0.00 | 1 | 1021.9 |
| 20260830085131 | 66 | 219 | 0.0 | 0.0 | 0.00 | 0.00 | 0.00 | 1 | 1022.0 |
| 20260830084632 | 66 | 219 | 0.0 | 0.0 | 0.00 | 0.00 | 0.00 | 1 | 1022.1 |
| 20260830084138 | 66 | 219 | 0.0 | 0.0 | 0.00 | 0.00 | 0.00 | 1 | 1022.1 |
| 20260830083645 | 66 | 219 | 0.0 | 0.0 | 0.00 | 0.00 | 0.00 | 1 | 1022.0 |
| 20260830083132 | 66 | 219 | 0.0 | 0.0 | 0.00 | 0.00 | 0.00 | 1 | 1021.9 |
| 20260830082616 | 66 | 219 | 0.0 | 0.0 | 0.00 | 0.00 | 0.00 | 1 | 1021.8 |
| 20260830082102 | 66 | 219 | 0.0 | 0.0 | 0.00 | 0.00 | 0.00 | 1 | 1022.0 |
| 20260830081553 | 66 | 219 | 0.0 | 0.0 | 0.00 | 0.00 | 0.00 | 1 | 1022.0 |
| 20260830081040 | 66 | 219 | 0.0 | 0.0 | 0.00 | 0.00 | 0.00 | 1 | 1022.1 |
| 20260830080543 | 66 | 219 | 0.0 | 0.0 | 0.00 | 0.00 | 0.00 | 1 | 1022.2 |
| 20260830080024 | 66 | 219 | 0.0 | 0.0 | 0.00 | 0.00 | 0.00 | 1 | 1022.3 |
| 20260830075514 | 66 | 219 | 0.0 | 0.0 | 0.00 | 0.00 | 0.00 | 1 | 1022.2 |
| 20260830075024 | 66 | 219 | 0.0 | 0.0 | 0.00 | 0.00 | 0.00 | 1 | 1022.3 |
| 20260830074511 | 66 | 219 | 0.0 | 0.0 | 0.00 | 0.00 | 0.00 | 1 | 1022.2 |
| 20260830074018 | 66 | 219 | 0.0 | 0.0 | 0.00 | 0.00 | 0.00 | 1 | 1022.2 |
| 20260830073509 | 66 | 219 | 0.0 | 0.0 | 0.00 | 0.00 | 0.00 | 1 | 1022.3 |
| 20260830073014 | 66 | 219 | 0.0 | 0.0 | 0.00 | 0.00 | 0.00 | 1 | 1022.3 |
| 20260830072517 | 66 | 219 | 0.0 | 0.0 | 0.00 | 0.00 | 0.00 | 1 | 1022.4 |
| 20260830072027 | 66 | 219 | 0.0 | 0.0 | 0.00 | 0.00 | 0.00 | 1 | 1022.4 |
| 20260830071525 | 66 | 219 | 0.0 | 0.0 | 0.00 | 0.00 | 0.00 | 1 | 1022.4 |
| 20260830070509 | 66 | 219 | 0.0 | 0.0 | 0.00 | 0.00 | 0.00 | 1 | 1022.3 |
| 20260830065955 | 66 | 221 | 0.0 | 0.0 | 0.00 | 0.00 | 0.00 | 1 | 1022.3 |
| 20260830065442 | 66 | 221 | 0.0 | 0.0 | 0.00 | 0.00 | 0.00 | 1 | 1022.3 |
| 20260830064925 | 65 | 221 | 0.0 | 0.0 | 0.00 | 0.00 | 0.00 | 1 | 1022.4 |
| 20260830064425 | 65 | 225 | 0.0 | 0.0 | 0.00 | 0.00 | 0.00 | 1 | 1022.4 |
| 20260830063906 | 65 | 242 | 0.0 | 0.0 | 0.00 | 0.00 | 0.00 | 1 | 1022.5 |
| 20260830063404 | 65 | 282 | 0.0 | 0.0 | 0.00 | 0.00 | 0.00 | 1 | 1022.5 |
| 20260830062351 | 65 | 282 | 0.0 | 0.0 | 0.00 | 0.00 | 0.00 | 1 | 1022.5 |
| 20260830061901 | 65 | 282 | 0.0 | 0.0 | 0.00 | 0.00 | 0.00 | 1 | 1022.6 |
| 20260830061343 | 65 | 282 | 0.0 | 0.0 | 0.00 | 0.00 | 0.00 | 1 | 1022.6 |
| 20260830060826 | 65 | 282 | 0.0 | 0.0 | 0.00 | 0.00 | 0.00 | 1 | 1022.7 |
| 20260830055816 | 65 | 288 | 0.0 | 0.0 | 0.00 | 0.00 | 0.00 | 1 | 1022.7 |
| 20260830055259 | 64 | 289 | 0.0 | 0.0 | 0.00 | 0.00 | 0.00 | 1 | 1022.7 |
| 20260830054757 | 64 | 290 | 0.0 | 0.0 | 0.00 | 0.00 | 0.00 | 1 | 1022.7 |
| 20260830054238 | 64 | 290 | 0.0 | 0.0 | 0.00 | 0.00 | 0.00 | 1 | 1022.8 |
| 20260830053724 | 64 | 290 | 0.0 | 0.0 | 0.00 | 0.00 | 0.00 | 1 | 1022.8 |